YZ-1 R/B, 43210

Orbit data source: Space-Track

YZ-1 R/B, 43210 is space debris originally from a launch on Mon, 12 Feb 2018 UTC launched from the Xichang Space Center, China (XSC). Debris objects in space refer to the collection of defunct objects orbiting the Earth. Examples of debris include non-operational satellites, rocket bodies, and fragments generated from explosions, collisions, or faulty payload assembly.

Loading next visibility...
Identifier
43210, 2018-018D
Orbit
Active
Last TLE update
2 days ago
Origin
Manufacturer
CALT
Mission
Spacecraft
Bus & Motor
YZ-1, Unknown motor
Mass
~2,075 kg wet, ~2,075 kg dry
Launch date (UTC)
2018-02-12 (7 years ago)
Launch vehicle
Unknown
Launch site
Xichang Space Center, China (XSC)
Object type
Payload
Rocket body
Debris
Shape & HBR
Double Cone, 4 m
Radar Cross Section
5.890 m², Large (>1 m²)

Expand to show TLE details & history

TLE from 2 days ago
0 YZ-1 R/B
1 43210U 18018D   25129.04779267 -.00000014  00000-0  00000-0 0  9995
2 43210  56.0755  83.3755 0036726  99.0227 261.3527  1.79055536 47327
Epoch: 2025-05-09T01:08Z
Definitive object data (Epoch: 2025-05-09T01:08:49.286Z)
Latitude
-0.00002°
Longitude
-160.96171°
Altitude
22,285.206 km
Speed
3.728 km/s
True Right ascension
05h 33m 24s
True Declination
0° 00' 00"
Sunlit
Object was in daylight at TLE epoch
Visualization TLE readout
Latitude
-36.53356°
Longitude
169.14947°
Altitude
22,366.608 km
Speed
3.718 km/s
Apparent Right ascension
04h 18m 40s
Apparent Declination
-45° 37' 42"
Sunlit
Object is in daylight
Visualization observer readout
Local Sidereal Time
23:53:01
Azimuth
138.633° SSE
Elevation
-14.127°
Doppler factor
1
Orbital elements
Apogee altitude
22,373.875 km
Perigee altitude
22,163.459 km
Semi-major axis
28,646.804 km
Eccentricity
0.0036726
Inclination
56.0755°
RAAN
83.3755°
Arg. of periapsis
99.0227°
True anomaly
260.93693°
Mean anomaly
261.3527°
Eccentric anomaly
261.14478°
Mean motion
0.44764 °/min
BSTAR
Unknown
Orbital period
804.22 mins
Loading maneuver chart data...
Loading SW <> Apogee altitude chart data...
Loading historical data...
Loading historical data...
Loading historical data...
Loading historical data...
Loading historical data...
Loading historical data...
Loading historical data...
Other satellites on launch #18 in the year 2018 (2018-02-12 UTC)

YZ-1 R/B Visibility forecast

Observer location: undefined°, undefined°

Span
Click to sort rows by Start time (UTC) header in descending order
Start Az.
Max El. time (UTC)
Max El. Az.
Max El.
End time (UTC)
End Az.
218 mins2025-05-10 17:20:43.860Z111.027° ESE2025-05-10 19:12:43.860Z68.355° E26.58°2025-05-10 20:58:43.860Z35.863° NE
201 mins2025-05-11 09:55:43.860Z324.426° NNW2025-05-11 11:33:43.860Z293.388° NW24.658°2025-05-11 13:16:43.860Z254.291° W
|